Precipitable_Water
0.32 0.32 0.33 0.42 0.46 0.43 0.64 0.61 0.59 0.66 0.83 0.78 0.79 0.77 0.80 0.90 0.82 0.70 0.68 0.74 0.79 0.81 0.94 1.05 1.12 1.21 1.27 1.31 1.29 1.30 1.35 1.40 1.45 1.44 1.33 1.33 1.28 1.33 1.36 1.45 1.54 1.54 1.55 1.59
0.29 0.27 0.38 0.45 0.47 0.47 0.51 0.45 0.63 0.71 0.79 0.79 0.79 0.75 0.85 0.92 0.81 0.81 0.76 0.80 0.84 0.91 0.93 1.00 1.08 1.20 1.22 1.15 1.23 1.24 1.29 1.35 1.37 1.26 1.23 1.20 1.15 1.14 1.19 1.30 1.35 1.39 1.39 1.37
0.23 0.30 0.39 0.39 0.43 0.45 0.45 0.42 0.49 0.58 0.74 0.85 0.81 0.74 0.83 0.95 0.96 1.01 1.05 1.04 1.06 0.94 0.88 0.93 1.00 1.06 1.19 1.09 1.15 1.15 1.20 1.25 1.22 1.19 1.23 1.18 1.17 1.15 1.03 1.08 1.10 1.19 1.35 1.43
0.21 0.33 0.35 0.37 0.37 0.43 0.39 0.47 0.48 0.55 0.62 0.50 0.76 0.50 0.73 0.85 0.86 0.93 1.01 1.05 1.12 1.13 1.12 1.05 0.99 1.02 1.08 1.03 1.12 1.13 1.16 1.19 1.20 1.28 1.18 1.08 0.95 0.92 0.95 0.96 1.00 1.12 1.12 1.00
0.19 0.26 0.31 0.31 0.33 0.41 0.40 0.46 0.45 0.49 0.60 0.60 0.62 0.53 0.58 0.82 0.74 0.75 0.86 1.01 1.13 1.21 1.28 1.16 1.01 1.02 1.06 1.03 1.02 1.12 1.12 1.14 1.25 1.26 1.22 1.14 1.02 1.03 1.06 1.03 0.93 0.91 0.95 0.99
0.17 0.26 0.30 0.31 0.34 0.42 0.48 0.43 0.46 0.43 0.42 0.39 0.48 0.47 0.49 0.53 0.59 0.64 0.83 0.91 1.07 1.19 1.23 1.27 1.27 1.20 1.18 1.11 1.01 1.12 1.08 1.11 1.19 1.19 1.21 1.15 1.05 1.00 0.94 0.93 0.95 0.94 0.87 0.87
0.14 0.19 0.23 0.32 0.29 0.40 0.41 0.38 0.29 0.29 0.32 0.32 0.46 0.50 0.49 0.53 0.60 0.62 0.67 0.76 0.95 1.10 1.16 1.17 1.24 1.28 1.17 1.13 1.00 1.12 1.15 1.08 1.12 1.15 1.15 1.15 1.04 1.03 0.95 0.93 0.93 0.97 0.94 0.88
0.09 0.10 0.18 0.23 0.27 0.30 0.34 0.37 0.28 0.22 0.23 0.28 0.39 0.40 0.39 0.52 0.59 0.70 0.78 0.78 0.93 0.99 1.10 1.15 1.21 1.25 1.24 1.32 1.27 1.29 1.28 1.13 1.16 1.20 1.17 1.16 1.14 1.04 0.97 0.91 0.88 0.92 0.95 0.94
0.13 0.11 0.16 0.20 0.26 0.30 0.32 0.31 0.36 0.28 0.30 0.25 0.29 0.33 0.38 0.47 0.51 0.62 0.69 0.76 0.84 0.92 1.01 1.06 1.15 1.30 1.38 1.47 1.44 1.37 1.34 1.34 1.20 1.14 1.19 1.23 1.26 1.16 1.10 0.96 0.99 0.95 0.99 1.04
0.17 0.12 0.15 0.17 0.28 0.31 0.33 0.37 0.28 0.27 0.20 0.19 0.23 0.25 0.29 0.36 0.46 0.53 0.66 0.68 0.79 0.89 0.94 1.01 1.12 1.22 1.30 1.39 1.44 1.47 1.51 1.41 1.30 1.24 1.19 1.19 1.18 1.23 1.19 1.12 1.04 1.04 1.09 1.12
0.20 0.17 0.14 0.19 0.21 0.23 0.30 0.28 0.29 0.28 0.25 0.19 0.17 0.21 0.36 0.41 0.47 0.54 0.62 0.67 0.76 0.83 0.86 0.95 1.08 1.16 1.20 1.27 1.37 1.39 1.45 1.41 1.41 1.37 1.28 1.15 1.24 1.25 1.23 1.12 1.12 1.10 1.11 1.06
0.27 0.19 0.16 0.16 0.22 0.29 0.30 0.27 0.26 0.22 0.20 0.24 0.22 0.22 0.45 0.47 0.51 0.62 0.62 0.72 0.79 0.85 0.91 0.97 1.08 1.16 1.19 1.19 1.27 1.29 1.41 1.41 1.49 1.56 1.48 1.16 1.19 1.33 1.26 1.15 1.11 1.11 1.00 1.03
0.31 0.21 0.16 0.18 0.21 0.27 0.25 0.26 0.26 0.26 0.24 0.20 0.21 0.24 0.47 0.50 0.53 0.63 0.66 0.71 0.76 0.81 0.91 0.99 1.06 1.15 1.11 1.16 1.22 1.29 1.38 1.41 1.48 1.60 1.52 1.34 1.20 1.39 1.29 1.17 1.18 1.21 1.11 1.08
0.37 0.24 0.18 0.15 0.18 0.24 0.23 0.25 0.29 0.28 0.23 0.23 0.26 0.29 0.38 0.44 0.50 0.55 0.65 0.72 0.72 0.76 0.80 0.90 1.02 1.04 1.06 1.10 1.21 1.30 1.38 1.44 1.45 1.63 1.51 1.37 1.25 1.47 1.36 1.23 1.21 1.21 1.18 1.15
0.34 0.25 0.23 0.18 0.23 0.25 0.24 0.26 0.31 0.30 0.29 0.26 0.28 0.32 0.36 0.45 0.51 0.55 0.61 0.70 0.69 0.67 0.73 0.82 0.87 0.89 0.96 1.06 1.19 1.33 1.36 1.33 1.37 1.47 1.56 1.42 1.35 1.59 1.52 1.38 1.29 1.20 1.17 1.16
0.40 0.26 0.27 0.19 0.24 0.27 0.25 0.29 0.34 0.34 0.34 0.35 0.36 0.35 0.45 0.48 0.55 0.56 0.57 0.57 0.57 0.63 0.68 0.74 0.83 0.89 0.91 0.99 1.10 1.18 1.26 1.31 1.43 1.55 1.61 1.80 1.90 1.75 1.61 1.56 1.38 1.19 1.11 1.19
0.42 0.32 0.26 0.20 0.24 0.26 0.26 0.33 0.36 0.36 0.39 0.37 0.34 0.38 0.47 0.51 0.51 0.53 0.55 0.59 0.59 0.65 0.69 0.74 0.84 0.92 0.98 1.09 1.16 1.12 1.19 1.36 1.41 1.53 1.75 1.80 1.75 1.63 1.52 1.53 1.51 1.21 1.09 1.14
0.52 0.37 0.30 0.22 0.25 0.22 0.29 0.40 0.40 0.41 0.47 0.48 0.48 0.46 0.46 0.50 0.55 0.60 0.62 0.61 0.66 0.69 0.73 0.83 0.90 0.90 0.93 0.93 0.92 1.00 1.04 1.07 1.23 1.36 1.50 1.75 1.65 1.71 1.57 1.50 1.51 1.24 1.16 1.18
0.62 0.47 0.33 0.25 0.23 0.30 0.41 0.50 0.49 0.47 0.45 0.56 0.50 0.53 0.55 0.58 0.64 0.62 0.68 0.71 0.73 0.79 0.82 0.80 0.82 0.81 0.83 0.85 0.91 0.95 0.99 1.07 1.22 1.27 1.53 1.54 1.58 1.59 1.49 1.49 1.45 1.29 1.24 1.17
0.66 0.59 0.38 0.32 0.25 0.27 0.46 0.64 0.70 0.63 0.41 0.60 0.57 0.55 0.58 0.59 0.54 0.58 0.75 0.79 0.82 0.85 0.87 0.85 0.87 0.91 0.86 0.90 1.00 0.98 1.00 1.06 1.15 1.35 1.52 1.67 1.76 1.66 1.55 1.55 1.46 1.35 1.33 1.21
0.59 0.56 0.43 0.38 0.35 0.46 0.63 0.70 0.72 0.43 0.49 0.65 0.64 0.66 0.67 0.60 0.71 0.81 0.84 0.86 0.90 0.89 0.89 0.91 0.93 0.91 0.94 1.03 1.09 1.10 1.11 1.07 1.27 1.48 1.54 1.67 1.66 1.57 1.61 1.59 1.58 1.62 1.49 1.39
0.57 0.56 0.53 0.52 0.42 0.39 0.74 0.68 0.56 0.70 0.78 0.78 0.75 0.73 0.71 0.76 0.81 0.83 0.85 0.86 0.87 0.89 0.95 1.00 1.01 1.03 1.08 1.15 1.09 1.04 1.05 1.22 1.36 1.41 1.41 1.46 1.49 1.54 1.59 1.52 1.41 1.45 1.39 1.47
0.57 0.69 0.65 0.69 0.59 0.79 0.85 0.78 0.87 0.89 0.83 0.80 0.77 0.80 0.81 0.81 0.84 0.88 0.88 0.90 0.95 1.01 1.00 1.07 1.03 1.05 1.19 1.23 1.19 1.15 1.28 1.28 1.35 1.40 1.42 1.47 1.50 1.47 1.48 1.38 1.31 1.24 1.26 1.31
0.73 0.87 0.78 0.80 0.82 0.82 0.85 0.92 0.92 0.89 0.86 0.86 0.87 0.88 0.87 0.84 0.90 0.92 0.98 1.01 1.00 1.03 1.03 1.09 1.06 1.05 1.09 1.25 1.34 1.41 1.39 1.36 1.39 1.40 1.41 1.40 1.34 1.30 1.27 1.27 1.27 1.32 1.26 1.30
0.71 0.86 0.81 0.78 0.89 0.91 0.91 0.95 0.95 0.95 0.97 0.94 0.94 0.94 0.93 0.93 0.94 0.97 1.02 1.11 1.13 1.14 1.16 1.15 1.14 1.18 1.29 1.42 1.43 1.41 1.39 1.37 1.36 1.33 1.26 1.23 1.32 1.27 1.25 1.22 1.23 1.27 1.31 1.31
0.85 0.77 0.69 0.67 0.84 0.82 0.86 0.95 0.98 0.99 0.97 0.96 0.94 0.94 0.89 0.85 0.81 0.84 0.91 1.01 1.18 1.16 1.23 1.19 1.25 1.33 1.30 1.33 1.32 1.30 1.33 1.27 1.17 1.12 1.15 1.11 1.09 1.11 1.05 1.03 1.09 1.20 1.20 1.11
Wind_Speed
24 21 22 22 17 12 18 18 19 14 13 10 9 7 10 12 11 11 12 11 11 11 11 11 12 12 11 11 10 11 11 9 8 7 6 5 6 7 8 8 9 9 9 10
22 25 26 21 18 15 17 16 21 13 13 11 11 9 12 13 13 12 13 12 12 11 12 12 13 12 11 11 11 11 11 10 8 7 5 4 5 6 7 7 8 8 9 9
25 23 25 23 20 18 16 16 16 16 16 10 11 9 13 14 13 14 14 14 13 13 12 14 14 14 13 12 12 11 11 10 9 7 5 4 4 5 5 6 7 8 8 8
27 29 26 24 22 20 18 18 15 16 20 15 16 13 16 16 17 17 16 17 16 15 15 14 16 16 14 14 13 12 11 11 9 8 6 5 5 5 6 6 6 6 7 8
28 30 29 25 24 21 20 16 17 14 20 14 16 11 14 17 17 21 19 18 18 18 17 17 17 17 16 16 15 14 13 12 11 10 8 7 6 6 6 5 5 6 8 10
32 26 30 30 25 23 19 16 12 12 15 18 20 17 15 15 22 22 20 19 18 19 20 19 19 18 17 16 16 16 15 14 13 12 11 10 8 7 7 7 7 8 9 10
30 32 31 28 27 25 21 17 14 12 13 15 19 18 19 19 20 20 21 19 18 18 18 20 21 20 19 18 17 16 16 15 15 14 13 12 11 9 9 9 9 9 10 11
28 32 34 31 31 27 25 24 19 16 14 16 13 19 18 22 21 22 21 21 18 18 19 19 20 21 22 20 18 18 17 17 17 16 14 13 12 12 11 11 11 11 11 12
28 29 30 34 32 29 26 24 23 18 16 14 17 18 17 17 17 20 24 22 23 19 19 19 20 22 23 22 22 19 19 18 18 18 17 15 15 15 14 13 12 12 13 13
29 24 31 34 31 31 33 25 19 18 18 19 19 18 17 17 16 17 19 22 23 21 19 19 19 20 21 24 24 23 21 21 20 20 20 19 18 17 17 16 16 15 15 15
32 28 27 28 33 34 26 26 23 20 20 19 18 20 20 19 17 17 19 22 22 20 19 18 18 19 20 20 22 23 22 22 23 23 23 22 20 19 19 19 18 17 17 17
34 30 30 34 30 28 30 30 27 26 23 19 20 21 16 20 17 16 18 20 19 19 18 18 19 19 20 21 21 22 23 23 24 25 25 25 23 22 21 21 20 19 18 18
32 31 29 26 29 29 29 28 26 24 21 24 19 20 17 18 17 18 18 18 19 20 19 19 18 19 22 21 21 22 24 25 26 27 28 28 27 25 24 22 21 20 20 19
34 29 36 35 31 29 27 26 25 25 22 22 24 22 19 19 19 18 19 20 19 20 20 19 20 20 21 22 22 23 25 26 28 30 31 31 30 28 25 22 21 21 21 21
34 31 31 38 36 30 28 26 23 26 28 24 25 23 23 23 21 21 22 20 19 19 18 19 20 20 20 21 22 24 26 26 28 31 34 34 32 29 26 24 23 22 22 21
30 30 29 31 32 34 31 29 27 29 24 23 20 23 22 23 19 18 21 20 19 18 19 18 19 19 20 21 22 23 25 28 30 33 34 33 31 24 25 25 26 24 23 23
23 31 25 33 28 28 27 29 23 21 24 25 22 24 20 21 22 22 22 23 21 19 18 18 18 18 19 21 22 24 26 28 29 31 31 33 33 31 27 29 28 26 25 25
18 26 26 29 23 25 29 25 24 19 18 22 22 19 22 23 25 23 23 23 21 20 19 19 19 18 19 20 21 23 25 27 27 28 28 30 29 32 28 28 28 27 27 26
17 20 22 26 27 21 21 20 18 16 18 18 20 21 20 20 21 23 23 22 22 21 19 19 20 19 19 20 22 22 23 25 25 27 27 28 28 29 27 27 28 28 27 27
13 16 22 21 23 21 22 21 20 20 19 19 20 20 18 16 19 21 21 20 20 20 19 19 20 21 21 21 21 23 24 24 26 25 27 28 27 27 28 26 27 29 31 28
14 12 16 18 19 19 17 19 20 16 19 17 19 20 19 16 17 17 17 18 19 19 19 21 22 22 22 23 23 25 23 24 23 24 24 24 25 25 24 25 28 29 30 29
15 13 14 16 16 17 16 20 20 20 16 14 14 15 12 14 14 15 16 18 19 21 22 21 22 23 25 24 24 23 23 23 22 22 22 23 24 24 23 21 24 25 31 30
17 18 15 16 18 16 14 15 15 16 16 13 12 13 13 12 14 14 16 19 21 21 23 25 26 24 26 25 24 22 22 21 20 19 20 22 23 22 23 23 25 26 26 26
24 19 17 15 15 16 13 14 14 15 14 14 13 13 14 14 15 16 19 19 19 21 22 24 26 26 25 24 24 22 21 20 19 19 21 22 23 22 22 24 28 29 28 28
19 22 20 15 18 17 14 15 15 15 14 13 13 15 17 17 19 19 20 20 23 22 22 22 22 22 23 22 21 21 21 20 21 21 23 23 24 25 26 28 26 24 27 28
16 19 16 20 20 16 20 21 18 16 17 17 16 17 17 18 20 23 25 25 28 24 22 21 20 20 19 20 20 20 20 21 21 22 24 24 24 25 25 24 25 25 25 24
Wind_Direction
200 199 200 198 199 192 182 196 198 204 201 197 207 191 184 188 191 194 199 199 201 203 201 199 200 198 199 203 204 203 205 212 216 225 240 263 276 278 278 280 280 281 283 288
202 207 203 200 200 194 193 200 209 221 204 207 212 216 203 197 201 198 199 204 209 213 209 206 205 203 202 204 205 203 207 211 217 223 239 272 289 289 286 285 286 285 285 285
206 207 200 203 203 200 204 204 209 214 207 221 206 239 222 223 221 221 220 220 220 215 212 212 208 208 210 208 205 205 209 210 211 217 237 270 298 308 304 296 294 293 288 290
214 208 205 206 208 205 214 214 221 214 203 221 215 233 231 226 230 230 229 227 228 224 222 217 212 212 214 214 212 213 214 213 215 222 236 258 284 302 305 306 307 300 297 297
214 210 207 210 210 206 216 210 220 221 218 225 228 232 243 219 236 235 230 231 230 225 224 222 217 214 217 217 216 217 218 219 225 228 240 258 278 290 304 312 315 311 305 303
215 214 211 213 211 212 213 219 232 244 225 232 227 225 237 221 227 235 233 233 228 227 226 221 219 218 220 220 220 222 225 228 231 235 245 255 268 282 288 293 301 313 316 314
214 217 217 212 215 214 214 214 232 239 236 236 228 228 235 230 233 232 227 228 226 223 220 221 223 223 222 222 223 223 226 231 233 238 245 253 263 272 280 283 290 301 311 315
212 217 214 212 213 212 215 214 219 224 236 242 228 231 239 241 246 243 234 229 222 222 221 225 224 221 220 223 226 229 232 235 237 239 244 251 258 268 276 282 289 293 303 310
213 223 218 216 215 211 218 220 226 234 246 240 238 249 259 248 246 245 237 225 223 223 222 226 226 225 225 229 233 236 235 241 242 241 245 250 261 266 267 275 283 289 295 304
220 221 220 222 216 221 220 219 227 237 231 243 248 249 246 252 249 259 227 222 220 222 223 226 227 226 227 229 235 237 242 244 245 245 247 251 262 264 264 269 276 282 289 295
217 218 220 212 216 217 217 221 227 231 234 233 246 251 241 239 258 243 228 221 218 221 223 227 227 226 226 231 234 239 243 246 247 247 248 250 260 264 264 265 270 276 284 290
219 219 223 221 218 218 220 225 225 231 239 242 241 247 244 246 252 234 231 222 221 224 228 233 233 233 232 234 239 240 244 249 251 249 248 249 257 263 263 264 266 272 278 285
212 218 218 228 223 220 220 224 227 233 234 231 230 244 247 246 242 238 232 225 227 231 237 240 237 237 236 239 243 248 250 253 255 252 250 250 253 260 260 260 265 271 276 280
210 216 218 221 218 214 219 223 228 226 228 230 237 242 246 243 239 239 233 228 231 232 239 242 238 239 241 243 249 255 258 259 258 255 254 252 254 257 256 256 262 268 275 279
210 217 216 222 220 218 223 228 228 227 230 227 239 236 241 240 236 237 229 228 232 239 238 241 241 243 248 251 257 263 262 264 262 259 256 254 250 255 253 254 260 269 270 277
214 218 214 220 219 217 225 233 238 235 233 233 234 241 243 239 240 232 227 228 234 239 238 245 246 254 255 257 263 269 268 268 264 263 261 264 242 256 261 258 266 267 267 273
211 213 212 222 215 215 224 226 228 235 228 227 233 239 235 234 234 231 232 233 236 241 243 249 249 257 259 263 270 272 274 271 270 266 262 259 260 260 270 266 260 264 269 277
215 216 215 218 209 217 227 228 229 219 227 227 235 236 231 231 233 236 238 235 237 242 246 248 251 259 263 271 276 279 277 274 272 267 264 260 260 272 274 264 262 264 273 271
219 213 211 209 211 217 223 218 217 225 220 224 229 236 239 233 241 240 234 238 238 241 245 249 253 258 268 277 280 279 281 279 275 268 264 264 267 269 271 268 263 265 272 272
214 212 207 210 204 209 218 228 233 232 233 241 241 236 235 227 227 231 231 234 237 241 245 249 254 262 271 279 279 282 284 280 277 271 268 267 267 272 271 268 265 268 269 271
219 216 207 214 206 213 225 230 221 217 229 246 235 232 233 237 238 228 224 231 239 246 253 258 263 265 273 277 278 287 285 284 279 276 274 268 272 276 270 270 276 278 268 267
210 210 212 213 205 217 236 219 217 226 224 218 223 225 222 224 229 229 236 242 250 256 261 261 264 271 275 274 282 283 285 283 279 275 272 267 275 271 269 273 283 282 278 269
215 211 202 211 200 205 208 199 203 206 214 224 220 225 220 223 234 241 248 257 259 263 262 268 272 275 276 276 276 281 284 283 279 273 273 274 273 267 269 275 283 275 286 280
216 213 211 204 198 200 197 202 210 215 218 223 230 232 231 233 243 250 261 261 260 266 269 275 275 273 274 275 276 275 276 278 273 272 278 279 274 269 270 281 284 281 279 283
217 212 213 215 210 206 210 212 219 227 232 233 235 245 247 251 256 258 257 266 264 268 274 280 276 274 273 274 270 271 273 274 275 277 280 281 275 274 275 286 286 284 284 282
217 208 212 219 213 218 224 230 229 236 242 250 253 260 261 270 272 277 263 273 269 264 271 273 276 272 269 268 271 273 273 274 275 278 283 282 280 278 279 279 283 287 286 285